Hourly Weather Granada

Today, 1 November, Sunday

Time Temperature Precipitation Wind Pressure Humidity
00:00 +18°C° 0 mm 1 mps 707 mmHg 55%
01:00 +16°C° 0 mm 1 mps 707 mmHg 56%
02:00 +16°C° 0 mm 1 mps 707 mmHg 56%
03:00 +15°C° 0 mm 0 mps 706 mmHg 57%
04:00 +15°C° 0 mm 1 mps 706 mmHg 58%
05:00 +15°C° 0 mm 1 mps 706 mmHg 59%
06:00 +15°C° 0 mm 1 mps 706 mmHg 60%
07:00 +18°C° 0 mm 1 mps 707 mmHg 55%
08:00 +18°C° 0 mm 0 mps 707 mmHg 49%
09:00 +20°C° 0 mm 0 mps 708 mmHg 43%
10:00 +21°C° 0 mm 0 mps 708 mmHg 40%
11:00 +24°C° 0 mm 1 mps 708 mmHg 37%
12:00 +25°C° 0 mm 1 mps 708 mmHg 34%
13:00 +25°C° 0 mm 1 mps 707 mmHg 33%
14:00 +25°C° 0 mm 1 mps 707 mmHg 33%
15:00 +26°C° 0 mm 1 mps 707 mmHg 32%
16:00 +24°C° 0 mm 1 mps 706 mmHg 38%
17:00 +22°C° 0 mm 1 mps 706 mmHg 45%
18:00 +18°C° 0 mm 0 mps 706 mmHg 51%
19:00 +18°C° 0 mm 0 mps 706 mmHg 52%
20:00 +17°C° 0 mm 0 mps 706 mmHg 54%
21:00 +16°C° 0 mm 0 mps 706 mmHg 55%
22:00 +16°C° 0 mm 0 mps 706 mmHg 56%
23:00 +16°C° 0 mm 0 mps 706 mmHg 57%

Tomorrow, 2 November, Monday

Time Temperature Precipitation Wind Pressure Humidity
00:00 +15°C° 0 mm 0 mps 706 mmHg 58%
01:00 +15°C° 0 mm 0 mps 705 mmHg 58%
02:00 +15°C° 0 mm 0 mps 705 mmHg 59%
03:00 +15°C° 0 mm 0 mps 705 mmHg 60%
04:00 +14°C° 0 mm 0 mps 705 mmHg 61%
05:00 +14°C° 0 mm 0 mps 705 mmHg 62%
06:00 +14°C° 0 mm 0 mps 705 mmHg 63%
07:00 +16°C° 0 mm 0 mps 705 mmHg 57%
08:00 +17°C° 0 mm 0 mps 706 mmHg 50%
09:00 +19°C° 0 mm 0 mps 706 mmHg 44%
10:00 +20°C° 0 mm 0 mps 706 mmHg 41%
11:00 +24°C° 0 mm 1 mps 706 mmHg 38%
12:00 +25°C° 0 mm 1 mps 706 mmHg 35%
13:00 +25°C° 0 mm 1 mps 706 mmHg 34%
14:00 +25°C° 0 mm 1 mps 706 mmHg 33%
15:00 +25°C° 0 mm 1 mps 706 mmHg 32%
16:00 +23°C° 0 mm 1 mps 705 mmHg 38%
17:00 +22°C° 0 mm 1 mps 705 mmHg 44%
18:00 +20°C° 0 mm 1 mps 705 mmHg 50%
19:00 +17°C° 0 mm 0 mps 705 mmHg 50%
20:00 +17°C° 0 mm 0 mps 705 mmHg 51%
21:00 +16°C° 0 mm 0 mps 705 mmHg 52%
22:00 +16°C° 0 mm 0 mps 705 mmHg 53%
23:00 +15°C° 0 mm 0 mps 705 mmHg 53%

Day after tomorrow, 3 November, Tuesday

Time Temperature Precipitation Wind Pressure Humidity
00:00 +15°C° 0 mm 0 mps 705 mmHg 54%
01:00 +15°C° 0 mm 0 mps 705 mmHg 55%
02:00 +14°C° 0 mm 0 mps 705 mmHg 55%
03:00 +14°C° 0 mm 0 mps 705 mmHg 56%
04:00 +14°C° 0 mm 0 mps 704 mmHg 57%
05:00 +14°C° 0 mm 0 mps 704 mmHg 58%
06:00 +13°C° 0 mm 0 mps 704 mmHg 59%
07:00 +15°C° 0 mm 0 mps 705 mmHg 53%
08:00 +17°C° 0 mm 0 mps 705 mmHg 48%
09:00 +19°C° 0 mm 0 mps 706 mmHg 43%
10:00 +22°C° 0 mm 1 mps 706 mmHg 41%
11:00 +23°C° 0 mm 1 mps 706 mmHg 39%
12:00 +24°C° 0 mm 1 mps 706 mmHg 37%
13:00 +24°C° 0 mm 2 mps 706 mmHg 38%
14:00 +24°C° 0 mm 2 mps 705 mmHg 38%
15:00 +24°C° 0 mm 2 mps 705 mmHg 39%
16:00 +21°C° 0.1 mm 2 mps 705 mmHg 44%
17:00 +20°C° 0.1 mm 2 mps 705 mmHg 49%
18:00 +19°C° 0.1 mm 1 mps 705 mmHg 54%
19:00 +19°C° 0 mm 1 mps 705 mmHg 56%
20:00 +18°C° 0 mm 1 mps 705 mmHg 57%
21:00 +16°C° 0 mm 1 mps 705 mmHg 59%
22:00 +16°C° 0 mm 1 mps 705 mmHg 60%
23:00 +15°C° 0 mm 1 mps 705 mmHg 62%

4 November, Wednesday

Time Temperature Precipitation Wind Pressure Humidity
00:00 +15°C° 0 mm 1 mps 705 mmHg 64%
01:00 +14°C° 0 mm 1 mps 704 mmHg 66%
02:00 +14°C° 0 mm 1 mps 704 mmHg 69%
03:00 +14°C° 0 mm 1 mps 703 mmHg 71%
04:00 +12°C° 0 mm 0 mps 703 mmHg 72%
05:00 +12°C° 0 mm 0 mps 703 mmHg 73%
06:00 +12°C° 0 mm 0 mps 702 mmHg 73%
07:00 +14°C° 0 mm 1 mps 702 mmHg 69%
08:00 +15°C° 0 mm 1 mps 703 mmHg 65%
09:00 +16°C° 0 mm 1 mps 703 mmHg 60%
10:00 +18°C° 0 mm 1 mps 702 mmHg 56%
11:00 +17°C° 0 mm 2 mps 702 mmHg 52%
12:00 +18°C° 0 mm 2 mps 702 mmHg 48%
13:00 +18°C° 0.1 mm 2 mps 701 mmHg 47%
14:00 +18°C° 0.1 mm 2 mps 700 mmHg 46%
15:00 +18°C° 0.1 mm 2 mps 700 mmHg 46%
16:00 +17°C° 0.1 mm 2 mps 699 mmHg 52%
17:00 +16°C° 0.1 mm 2 mps 698 mmHg 59%
18:00 +15°C° 0.1 mm 2 mps 698 mmHg 65%
19:00 +15°C° 0.6 mm 2 mps 698 mmHg 69%
20:00 +14°C° 0.6 mm 1 mps 698 mmHg 73%
21:00 +14°C° 0.6 mm 1 mps 698 mmHg 77%
22:00 +14°C° 0.2 mm 1 mps 697 mmHg 77%
23:00 +13°C° 0.2 mm 2 mps 697 mmHg 78%

5 November, Thursday

Time Temperature Precipitation Wind Pressure Humidity
00:00 +13°C° 0.2 mm 2 mps 696 mmHg 79%
01:00 +13°C° 0.6 mm 2 mps 696 mmHg 81%
02:00 +13°C° 0.6 mm 2 mps 696 mmHg 83%
03:00 +13°C° 0.6 mm 2 mps 695 mmHg 84%
04:00 +13°C° 4 mm 2 mps 695 mmHg 87%
05:00 +13°C° 4 mm 2 mps 695 mmHg 90%
06:00 +13°C° 4 mm 2 mps 695 mmHg 92%
07:00 +12°C° 1.7 mm 3 mps 696 mmHg 89%
08:00 +12°C° 1.7 mm 3 mps 696 mmHg 87%
09:00 +13°C° 1.7 mm 4 mps 696 mmHg 84%
10:00 +14°C° 0.3 mm 4 mps 696 mmHg 76%
11:00 +15°C° 0.3 mm 4 mps 696 mmHg 68%
12:00 +17°C° 0.3 mm 4 mps 697 mmHg 60%
13:00 +18°C° 0 mm 4 mps 697 mmHg 56%
14:00 +17°C° 0 mm 5 mps 696 mmHg 53%
15:00 +19°C° 0 mm 5 mps 696 mmHg 49%
16:00 +17°C° 0.4 mm 4 mps 696 mmHg 56%
17:00 +15°C° 0.4 mm 4 mps 696 mmHg 63%
18:00 +14°C° 0.4 mm 3 mps 696 mmHg 70%
19:00 +14°C° 0.2 mm 3 mps 696 mmHg 71%
20:00 +14°C° 0.2 mm 3 mps 696 mmHg 71%
21:00 +14°C° 0.2 mm 3 mps 696 mmHg 72%
22:00 +14°C° 0.1 mm 3 mps 696 mmHg 74%
23:00 +13°C° 0.1 mm 3 mps 696 mmHg 75%

6 November, Friday

Time Temperature Precipitation Wind Pressure Humidity
00:00 +14°C° 0.1 mm 2 mps 696 mmHg 77%
01:00 +14°C° 0.2 mm 2 mps 696 mmHg 78%
02:00 +14°C° 0.2 mm 2 mps 696 mmHg 78%
03:00 +14°C° 0.2 mm 1 mps 696 mmHg 79%
04:00 +14°C° 0 mm 1 mps 696 mmHg 78%
05:00 +14°C° 0 mm 2 mps 695 mmHg 77%
06:00 +14°C° 0 mm 2 mps 695 mmHg 76%
07:00 +15°C° 0 mm 2 mps 695 mmHg 72%
08:00 +16°C° 0 mm 2 mps 695 mmHg 68%
09:00 +17°C° 0 mm 3 mps 696 mmHg 64%
10:00 +18°C° 0 mm 4 mps 696 mmHg 60%
11:00 +19°C° 0 mm 4 mps 696 mmHg 57%
12:00 +20°C° 0 mm 5 mps 696 mmHg 54%
13:00 +19°C° 0 mm 6 mps 696 mmHg 55%
14:00 +17°C° 0 mm 6 mps 696 mmHg 56%
15:00 +17°C° 0 mm 7 mps 696 mmHg 57%
16:00 +16°C° 0 mm 6 mps 697 mmHg 60%
17:00 +15°C° 0 mm 5 mps 697 mmHg 64%
18:00 +14°C° 0 mm 3 mps 697 mmHg 68%
19:00 +13°C° 0 mm 4 mps 697 mmHg 70%
20:00 +13°C° 0 mm 4 mps 698 mmHg 73%
21:00 +12°C° 0 mm 4 mps 698 mmHg 75%
22:00 +12°C° 0.1 mm 4 mps 698 mmHg 77%
23:00 +12°C° 0.1 mm 4 mps 698 mmHg 79%
Show more

We Need Your Consent

Meteoprog and our Service Providers may store and access personal data such as cookies, device identifiers or other similar technologies on your device and process such data to personalise content and ads, as well as provide social media features and to analyse the traffic.

  • Store and/or access information on your device

    Cookies, device identifiers or other information can be stored or accessed on your device for the purposes indicated above.

  • Personalised ads and content, ad and content measurement, audience insights, and products development

    Ads and content can be personalised based on a profile. More data can be added to better personalise ads and content. Ad and content performance can be measured. Insights about the audience who saw the ads and content can be derived. Such data can be used to develop or improve user’s experience, systems and software.

By clicking ‘I Agree’ you will allow the use of indicated cookies, device identifiers, web beacons or other similar technologies. Your settings can be changed in the browser on your device.

For certain purposes, legitimate interests may be relied on, rather than consent. You can read more about this in our Privacy and Cookie Policy.